| time (UTC) | temp F | wind direction | speed MPH | gust MPH | rain 1hr in | rain 24hr in | rain mn in | humidity % | barometer mb |
| 20260905060106 | 83 | 237 | 1.0 | 4.0 | 0.00 | 0.03 | 0.00 | 45 | 1004.8 |
| 20260905054554 | 83 | 237 | 0.0 | 2.0 | 0.00 | 0.03 | 0.03 | 45 | 1004.9 |
| 20260905053054 | 83 | 237 | 0.0 | 2.0 | 0.00 | 0.03 | 0.03 | 44 | 1005.0 |
| 20260905051554 | 84 | 237 | 1.0 | 5.0 | 0.00 | 0.03 | 0.03 | 43 | 1005.0 |
| 20260905050052 | 84 | 237 | 0.0 | 5.0 | 0.00 | 0.03 | 0.03 | 42 | 1005.0 |
| 20260905044551 | 85 | 237 | 0.0 | 4.0 | 0.00 | 0.03 | 0.03 | 41 | 1005.0 |
| 20260905043051 | 85 | 237 | 1.0 | 5.0 | 0.00 | 0.03 | 0.03 | 40 | 1005.2 |
| 20260905041600 | 86 | 237 | 1.0 | 4.0 | 0.00 | 0.03 | 0.03 | 40 | 1005.1 |
| 20260905040050 | 86 | 237 | 0.0 | 5.0 | 0.00 | 0.03 | 0.03 | 39 | 1005.2 |
| 20260905034559 | 87 | 237 | 0.0 | 5.0 | 0.00 | 0.03 | 0.03 | 39 | 1005.0 |
| 20260905033051 | 87 | 237 | 0.0 | 3.0 | 0.00 | 0.03 | 0.03 | 38 | 1004.8 |
| 20260905031552 | 87 | 237 | 0.0 | 4.0 | 0.00 | 0.03 | 0.03 | 38 | 1004.5 |
| 20260905030050 | 88 | 237 | 0.0 | 2.0 | 0.00 | 0.03 | 0.03 | 37 | 1004.4 |
| 20260905024547 | 88 | 237 | 0.0 | 3.0 | 0.00 | 0.03 | 0.03 | 37 | 1004.2 |
| 20260905023047 | 87 | 237 | 0.0 | 0.0 | 0.00 | 0.03 | 0.03 | 38 | 1004.0 |
| 20260905021551 | 88 | 237 | 0.0 | 1.0 | 0.00 | 0.03 | 0.03 | 37 | 1003.8 |
| 20260905020045 | 88 | 237 | 0.0 | 0.0 | 0.00 | 0.03 | 0.03 | 37 | 1003.9 |
| 20260905014544 | 88 | 237 | 0.0 | 4.0 | 0.00 | 0.03 | 0.03 | 36 | 1003.8 |
| 20260905013044 | 88 | 237 | 0.0 | 2.0 | 0.00 | 0.03 | 0.03 | 36 | 1003.7 |
| 20260905011545 | 89 | 237 | 1.0 | 4.0 | 0.00 | 0.03 | 0.03 | 36 | 1003.6 |
| 20260905010043 | 89 | 237 | 0.0 | 7.0 | 0.00 | 0.03 | 0.03 | 35 | 1003.6 |
| 20260905004547 | 89 | 237 | 2.0 | 6.0 | 0.00 | 0.03 | 0.03 | 35 | 1003.4 |
| 20260905003042 | 90 | 238 | 0.0 | 4.0 | 0.00 | 0.03 | 0.03 | 34 | 1003.5 |
| 20260905001552 | 90 | 238 | 1.0 | 8.0 | 0.00 | 0.03 | 0.03 | 34 | 1003.4 |
| 20260905000041 | 90 | 238 | 2.0 | 7.0 | 0.00 | 0.03 | 0.03 | 34 | 1003.5 |
| 20260904234542 | 90 | 239 | 2.0 | 8.0 | 0.00 | 0.03 | 0.03 | 34 | 1003.3 |
| 20260904233044 | 90 | 242 | 3.0 | 8.0 | 0.00 | 0.03 | 0.03 | 34 | 1003.2 |
| 20260904231550 | 92 | 242 | 0.0 | 8.0 | 0.00 | 0.03 | 0.03 | 33 | 1003.2 |
| 20260904230039 | 93 | 254 | 2.0 | 8.0 | 0.00 | 0.03 | 0.03 | 32 | 1003.2 |
| 20260904224546 | 93 | 254 | 2.0 | 8.0 | 0.00 | 0.03 | 0.03 | 33 | 1003.4 |
| 20260904223029 | 91 | 233 | 0.0 | 7.0 | 0.00 | 0.03 | 0.03 | 35 | 1003.4 |
| 20260904221529 | 91 | 233 | 1.0 | 8.0 | 0.00 | 0.03 | 0.03 | 35 | 1003.7 |
| 20260904220028 | 91 | 227 | 3.0 | 7.0 | 0.00 | 0.03 | 0.03 | 35 | 1003.7 |
| 20260904214524 | 91 | 221 | 4.0 | 9.0 | 0.00 | 0.03 | 0.03 | 35 | 1003.7 |
| 20260904213026 | 90 | 223 | 1.0 | 8.0 | 0.00 | 0.03 | 0.03 | 37 | 1003.8 |
| 20260904211520 | 90 | 217 | 3.0 | 10.0 | 0.00 | 0.03 | 0.03 | 36 | 1004.0 |
| 20260904210019 | 88 | 216 | 3.0 | 9.0 | 0.00 | 0.03 | 0.03 | 39 | 1004.2 |
| 20260904204515 | 89 | 236 | 4.0 | 11.0 | 0.00 | 0.03 | 0.03 | 39 | 1004.7 |
| 20260904203013 | 90 | 236 | 0.0 | 9.0 | 0.00 | 0.03 | 0.03 | 38 | 1004.9 |
| 20260904201510 | 88 | 234 | 4.0 | 12.0 | 0.00 | 0.03 | 0.03 | 39 | 1005.0 |
| 20260904200010 | 87 | 204 | 4.0 | 9.0 | 0.00 | 0.03 | 0.03 | 41 | 1005.3 |
| 20260904194507 | 88 | 243 | 2.0 | 9.0 | 0.00 | 0.03 | 0.03 | 42 | 1005.5 |
| 20260904193005 | 87 | 233 | 3.0 | 8.0 | 0.00 | 0.03 | 0.03 | 42 | 1005.7 |
| 20260904191504 | 86 | 218 | 2.0 | 9.0 | 0.00 | 0.03 | 0.03 | 43 | 1006.0 |
| 20260904190002 | 86 | 230 | 2.0 | 8.0 | 0.00 | 0.03 | 0.03 | 44 | 1006.2 |
| 20260904184601 | 85 | 232 | 2.0 | 9.0 | 0.00 | 0.03 | 0.03 | 46 | 1006.5 |
| 20260904183100 | 85 | 234 | 4.0 | 10.0 | 0.00 | 0.03 | 0.03 | 47 | 1006.7 |
| 20260904181557 | 84 | 238 | 2.0 | 9.0 | 0.00 | 0.03 | 0.03 | 49 | 1006.9 |
| 20260904180056 | 82 | 225 | 4.0 | 11.0 | 0.00 | 0.03 | 0.03 | 52 | 1007.1 |
| 20260904174551 | 82 | 232 | 2.0 | 11.0 | 0.00 | 0.03 | 0.03 | 51 | 1007.2 |
| 20260904173055 | 81 | 234 | 3.0 | 7.0 | 0.00 | 0.03 | 0.03 | 53 | 1007.4 |
| 20260904171546 | 79 | 234 | 2.0 | 7.0 | 0.00 | 0.03 | 0.03 | 55 | 1007.5 |
| 20260904170044 | 78 | 232 | 1.0 | 6.0 | 0.00 | 0.03 | 0.03 | 57 | 1007.5 |
| 20260904164537 | 77 | 232 | 0.0 | 8.0 | 0.00 | 0.03 | 0.03 | 59 | 1007.6 |
| 20260904163035 | 76 | 230 | 3.0 | 7.0 | 0.00 | 0.03 | 0.03 | 61 | 1007.3 |
| 20260904161532 | 76 | 231 | 0.0 | 7.0 | 0.00 | 0.03 | 0.03 | 62 | 1007.3 |
| 20260904160030 | 75 | 229 | 2.0 | 7.0 | 0.00 | 0.03 | 0.03 | 64 | 1007.2 |
| 20260904154528 | 75 | 229 | 2.0 | 5.0 | 0.00 | 0.03 | 0.03 | 66 | 1007.2 |
| 20260904153025 | 74 | 228 | 1.0 | 5.0 | 0.00 | 0.03 | 0.03 | 67 | 1007.0 |
| 20260904151525 | 73 | 227 | 1.0 | 5.0 | 0.00 | 0.03 | 0.03 | 69 | 1006.9 |
| 20260904150026 | 73 | 236 | 0.0 | 3.0 | 0.00 | 0.03 | 0.03 | 70 | 1006.9 |
| 20260904144514 | 73 | 236 | 0.0 | 4.0 | 0.00 | 0.03 | 0.03 | 70 | 1006.8 |
| 20260904143010 | 72 | 236 | 0.0 | 5.0 | 0.00 | 0.03 | 0.03 | 70 | 1007.0 |
| 20260904141509 | 72 | 236 | 0.0 | 2.0 | 0.00 | 0.03 | 0.03 | 69 | 1006.9 |
| 20260904140007 | 72 | 236 | 1.0 | 7.0 | 0.00 | 0.03 | 0.03 | 68 | 1006.9 |
| 20260904134504 | 73 | 236 | 1.0 | 5.0 | 0.00 | 0.03 | 0.03 | 67 | 1006.7 |
| 20260904133003 | 73 | 236 | 2.0 | 7.0 | 0.00 | 0.03 | 0.03 | 67 | 1006.5 |
| 20260904131602 | 72 | 236 | 0.0 | 2.0 | 0.00 | 0.03 | 0.03 | 67 | 1006.1 |
| 20260904130058 | 72 | 236 | 0.0 | 1.0 | 0.00 | 0.03 | 0.03 | 67 | 1006.0 |
| 20260904124603 | 72 | 236 | 0.0 | 0.0 | 0.00 | 0.03 | 0.03 | 67 | 1006.1 |
| 20260904123054 | 72 | 236 | 0.0 | 0.0 | 0.00 | 0.03 | 0.03 | 67 | 1005.9 |
| 20260904121554 | 73 | 236 | 0.0 | 0.0 | 0.00 | 0.03 | 0.03 | 65 | 1005.9 |
| 20260904120057 | 73 | 236 | 0.0 | 1.0 | 0.00 | 0.03 | 0.03 | 64 | 1005.8 |
| 20260904114554 | 73 | 236 | 0.0 | 4.0 | 0.00 | 0.03 | 0.03 | 63 | 1005.8 |
| 20260904113051 | 73 | 236 | 0.0 | 2.0 | 0.00 | 0.03 | 0.03 | 62 | 1005.8 |
| 20260904111550 | 73 | 236 | 3.0 | 8.0 | 0.00 | 0.03 | 0.03 | 61 | 1005.8 |
| 20260904110050 | 73 | 236 | 3.0 | 10.0 | 0.00 | 0.03 | 0.03 | 60 | 1005.7 |
| 20260904104549 | 73 | 236 | 0.0 | 5.0 | 0.00 | 0.03 | 0.03 | 59 | 1005.6 |
| 20260904103048 | 73 | 238 | 0.0 | 9.0 | 0.00 | 0.03 | 0.03 | 59 | 1005.4 |
| 20260904101550 | 73 | 241 | 0.0 | 7.0 | 0.00 | 0.03 | 0.03 | 59 | 1005.5 |
| 20260904100048 | 73 | 240 | 3.0 | 9.0 | 0.00 | 0.03 | 0.03 | 59 | 1005.3 |
| 20260904094546 | 73 | 238 | 3.0 | 10.0 | 0.00 | 0.03 | 0.03 | 58 | 1005.2 |
| 20260904093048 | 73 | 239 | 1.0 | 9.0 | 0.00 | 0.03 | 0.03 | 59 | 1005.0 |
| 20260904091552 | 73 | 237 | 3.0 | 10.0 | 0.00 | 0.03 | 0.03 | 59 | 1005.1 |
| 20260904090043 | 73 | 240 | 3.0 | 9.0 | 0.00 | 0.03 | 0.03 | 60 | 1005.3 |
| 20260904084541 | 74 | 236 | 2.0 | 9.0 | 0.00 | 0.03 | 0.03 | 60 | 1005.4 |
| 20260904083040 | 74 | 238 | 0.0 | 1.0 | 0.00 | 0.03 | 0.03 | 59 | 1005.4 |
| 20260904081539 | 75 | 238 | 0.0 | 8.0 | 0.00 | 0.03 | 0.03 | 59 | 1005.4 |
| 20260904080038 | 75 | 237 | 0.0 | 2.0 | 0.00 | 0.03 | 0.03 | 60 | 1005.5 |
| 20260904074552 | 75 | 238 | 0.0 | 3.0 | 0.00 | 0.03 | 0.03 | 61 | 1005.5 |
| 20260904073035 | 75 | 237 | 0.0 | 3.0 | 0.00 | 0.03 | 0.03 | 61 | 1005.5 |
| 20260904071548 | 76 | 237 | 0.0 | 7.0 | 0.01 | 0.03 | 0.03 | 62 | 1005.7 |
| 20260904070034 | 75 | 237 | 0.0 | 3.0 | 0.03 | 0.03 | 0.03 | 62 | 1005.9 |
| 20260904064543 | 75 | 237 | 2.0 | 9.0 | 0.03 | 0.03 | 0.03 | 62 | 1006.0 |
| 20260904063032 | 75 | 167 | 6.0 | 9.0 | 0.03 | 0.03 | 0.03 | 62 | 1005.6 |
| 20260904061510 | 76 | 185 | 3.0 | 10.0 | 0.02 | 0.02 | 0.02 | 59 | 1005.1 |